COSMOS 2251 DEB, 35043

Orbit data source: Space-Track

COSMOS 2251 DEB, 35043 is space debris in LEO originally from a launch on Wed, 16 Jun 1993 UTC launched from the Plesetsk Missile And Space Complex (PKMTR). The debris from Iridium 33, an American commercial communications satellite, has been tracked extensively since its accidental collision with the defunct Russian satellite Cosmos 2251 in 2009. This event, occurring at high speed in low Earth orbit (LEO), generated thousands of pieces of space debris, significantly increasing the risk of further collisions. The Iridium 33 debris cloud has impacted space traffic management and orbital debris mitigation strategies, making it a subject of ongoing study in space situational awareness.

Loading next visibility...
Identifier
35043, 1993-036AHG
Orbit
LEO
Country
Flag of CISCIS
Related business
Manufacturer
Unknown
Mission
Spacecraft
Bus & Motor
Unknown
Mass
Unknown
Launch date (UTC)
1993-06-16 (32 years ago)
Launch vehicle
Unknown
Launch site
Plesetsk Missile And Space Complex (PKMTR)
Object type
Payload
Rocket body
Debris
Shape & HBR
Unknown shape, 0.1 m
Radar Cross Section
Small (<0.1 m²)

Expand to show TLE details & history
Last TLE update: 2 days ago

TLE from 2 days ago
0 COSMOS 2251 DEB
1 35043U 93036AHG 25306.49157819  .00017966  00000-0  25338-2 0  9998
2 35043  73.9502 124.7044 0096972 340.8202  18.9328 14.73982818668256
Epoch: 2025-11-02T11:47Z
TLE epoch observation values (Epoch: 2025-11-02T11:47:52.355Z)
Latitude
Longitude
-94.27028°
Altitude
586.643 km
Speed
7.602 km/s
True Right ascension
08h 18m 49s
True Declination
0° 00' 00"
Sunlit
Object was in daylight at epoch
Visualization orbit readout
Latitude
Unknown
Longitude
Unknown
Altitude
Unknown
Speed
Unknown
Apparent Right ascension
Unknown
Apparent Declination
Unknown
Sunlit
N/A
Visualization observer readout
Local Sidereal Time
00:15:59
Azimuth
Unknown
Elevation
Unknown
Doppler factor
Unknown
Orbital elements
Apogee altitude
714.086 km
Perigee altitude
577.857 km
Semi-major axis
7,024.108 km
Eccentricity
0.0097
Inclination
73.9502°
RAAN
124.7044°
Arg. of periapsis
340.8202°
True anomaly
19.29752°
Mean anomaly
18.9328°
Eccentric anomaly
19.11474°
Mean motion
3.68686 °/min
Orbital period
97.64 mins
BSTAR
0.0025338
Loading maneuver chart data...
Computing Atmospheric mass density...

Documentation

Showing up to 5 results
|